Regional Weather Roundup
Issued by NWS

Home | Current Version | Previous Version | Text Only | Print | Product List | Glossary Off
Versions: 1 2 3 4 5 6 7 8 9 10 11 12 13 14 15 16 17 18 19 20 21 22 23 24 25 26 27 28 29 30 31 32 33 34 35 36 37 38 39 40 41 42 43 44 45 46 47 48 49 50

523
ASUS43 KBIS 270202
RWRND

NORTH DAKOTA REGIONAL WEATHER ROUNDUP
NATIONAL WEATHER SERVICE BISMARCK ND
800 PM CST SUN FEB 26 2017

NOTE: "FAIR" INDICATES FEW OR NO CLOUDS BELOW 12,000 FEET WITH NO
SIGNIFICANT WEATHER AND/OR OBSTRUCTIONS TO VISIBILITY.


NDZ001>003-009>011-017-270300-
NORTHWEST NORTH DAKOTA

CITY           SKY/WX    TMP DP  RH WIND       PRES   REMARKS
WILLISTON      CLOUDY    23  17  78 W3        29.81R
MINOT          MOCLDY    17  10  74 SW10      29.80S WCI   5
$$

NDZ018>021-031>035-040>046-270300-
SOUTHWEST NORTH DAKOTA

CITY           SKY/WX    TMP DP  RH WIND       PRES   REMARKS
BISMARCK       CLOUDY    20  14  77 NE5       29.85R WCI  13
DICKINSON      FAIR      19  12  74 N5        29.77R WCI  12
GARRISON         N/A     13   9  84 CALM      29.81R
HETTINGER ARPT CLEAR     22  19  89 N5        29.79R WCI  16
$$

NDZ004>008-012>016-024-026-027-054-270300-
NORTHEAST NORTH DAKOTA

CITY           SKY/WX    TMP DP  RH WIND       PRES   REMARKS
GRAND FORKS    CLEAR     10   1  67 S3        29.89R
DEVILS LAKE    FAIR       7   4  87 SW7       29.85R WCI  -5
$$

NDZ022-023-025-028>030-036>039-047>053-270300-
SOUTHEAST NORTH DAKOTA

CITY           SKY/WX    TMP DP  RH WIND       PRES   REMARKS
FARGO          CLOUDY    18  11  74 SE6       29.89F WCI  10
JAMESTOWN      CLOUDY    21  15  78 CALM      29.83S
$$





USA.gov is the U.S. government's official web portal to all federal, state and local government web resources and services.